This is the latest recevied weather packets stored in our database for station/object KC1BRV. If no packets are shown the sender has not sent any weather packets the latest 10 day(s).
| Time | Temp. | Humidity | Pressure | Rain* | Wind** | Luminosity | Snow |
|---|---|---|---|---|---|---|---|
| 1777832875 | 11.67° C | 38% | 1007.7 hPa | 0 mm | - | 331 W/m² | - |
| 1777832574 | 11.11° C | 40% | 1007.8 hPa | 0 mm | - | 237 W/m² | - |
| 1777832270 | 11.11° C | 41% | 1007.7 hPa | 0 mm | - | 149 W/m² | - |
| 1777831967 | 11.11° C | 41% | 1007.6 hPa | 0 mm | - | 95 W/m² | - |
| 1777831663 | 11.67° C | 40% | 1007.8 hPa | 0 mm | - | 118 W/m² | - |
| 1777831362 | 11.67° C | 42% | 1007.6 hPa | 0 mm | - | 274 W/m² | - |
| 1777831058 | 11.67° C | 42% | 1007.8 hPa | 0 mm | - | 208 W/m² | - |
| 1777830756 | 11.67° C | 40% | 1007.7 hPa | 0 mm | - | 198 W/m² | - |
| 1777830452 | 11.11° C | 41% | 1007.8 hPa | 0 mm | - | 188 W/m² | - |
| 1777830150 | 11.11° C | 42% | 1007.7 hPa | 0 mm | - | 161 W/m² | - |
| 1777829850 | 11.67° C | 42% | 1007.7 hPa | 0 mm | - | 148 W/m² | - |
| 1777829546 | 11.67° C | 42% | 1007.6 hPa | 0 mm | - | 157 W/m² | - |
| 1777829244 | 11.67° C | 40% | 1007.4 hPa | 0 mm | - | 169 W/m² | - |
| 1777828940 | 12.22° C | 43% | 1007.5 hPa | 0 mm | - | 119 W/m² | - |
| 1777828637 | 12.22° C | 40% | 1007.5 hPa | 0 mm | - | 232 W/m² | - |
| 1777828334 | 12.22° C | 40% | 1007.6 hPa | 0 mm | - | 225 W/m² | - |
| 1777828031 | 11.67° C | 42% | 1007.6 hPa | 0 mm | - | 619 W/m² | - |
| 1777827728 | 11.67° C | 42% | 1007.6 hPa | 0 mm | - | 251 W/m² | - |
| 1777827425 | 12.22° C | 41% | 1007.6 hPa | 0 mm | - | 152 W/m² | - |
| 1777827122 | 12.78° C | 43% | 1007.6 hPa | 0 mm | - | 278 W/m² | - |
| 1777826818 | 12.22° C | 43% | 1007.6 hPa | 0 mm | - | 973 W/m² | - |
| 1777826515 | 11.67° C | 48% | 1007.8 hPa | 0 mm | - | 933 W/m² | - |
| 1777826212 | 10.56° C | 49% | 1007.8 hPa | 0 mm | - | 366 W/m² | - |
| 1777825909 | 10.56° C | 48% | 1008 hPa | 0 mm | - | 369 W/m² | - |
| 1777825606 | 10.56° C | 49% | 1007.9 hPa | 0 mm | - | 286 W/m² | - |
* Rain latest hour (hover to see other rain measurements)
** Current wind speed in m/s (hover to see current wind gust speed)